Weather History for Hazen, ND

Change the Weather History Date:

Wednesday, October 31, 2012

  Actual Average (KN60) Record (KN60)
Temperature  
Mean Temperature 40 °F -  
Max Temperature 48 °F 43 °F 75 °F (1999)
Min Temperature 32 °F 24 °F 7 °F (2002)
Degree Days  
Heating Degree Days 25    
Moisture  
Dew Point 34 °F    
Average Humidity 89    
Maximum Humidity 100    
Minimum Humidity 76    
Precipitation  
Precipitation 0.00 in - - ()
Sea Level Pressure  
Sea Level Pressure 30.04 in    
Wind  
Wind Speed 6 mph (North)    
Max Wind Speed 16 mph    
Max Gust Speed 22 mph    
Visibility 10 miles    
Events      
Averages and records for this station are not official NWS values.
T = Trace of Precipitation, MM = Missing Value Source: NWS Daily Summary

Daily Weather History Graph

Daily Weather History Graph

Search for Another Location

Airport:

Trip Planner

Search our weather history database for the weather conditions in past years. The results will help you decide how hot, cold, wet, or windy it might be!

Date:

Astronomy

Oct. 31, 2012 Rise Set
Actual Time 8:28 AM CDT 6:30 PM CDT
Civil Twilight 7:56 AM CDT 7:02 PM CDT
Nautical Twilight 7:20 AM CDT 7:38 PM CDT
Astronomical Twilight 6:45 AM CDT 8:13 PM CDT
Moon 7:34 PM CDT (10/31) 10:19 AM CDT (10/31)
Length of Visible Light 11h 05m
Length of Day
10h 01m
Full, 97% of the Moon is Illuminated
Oct 31
Full
Nov 6
Last Quarter
Nov 13
New
Nov 20
First Quarter
Nov 28
Full

Hourly Weather History & Observations

Time (CDT) Temp. Windchill Dew Point Humidity Pressure Visibility Wind Dir Wind Speed Gust Speed Precip Events Conditions
12:15 AM 32.0 °F 28.7 °F 32.0 °F 100% 29.96 in 10.0 mi SW 3.5 mph - N/A   Clear
12:35 AM 32.0 °F 28.7 °F 32.0 °F 100% 29.97 in 10.0 mi WSW 3.5 mph - N/A   Clear
12:55 AM 33.8 °F - 32.0 °F 93% 29.97 in 10.0 mi Calm Calm - N/A   Clear
1:15 AM 32.0 °F 28.7 °F 32.0 °F 100% 29.96 in 10.0 mi SW 3.5 mph - N/A   Clear
1:35 AM 32.0 °F 28.7 °F 32.0 °F 100% 29.96 in 10.0 mi WSW 3.5 mph - N/A   Clear
1:55 AM 33.8 °F 29.6 °F 32.0 °F 93% 29.97 in 10.0 mi WSW 4.6 mph - N/A   Clear
2:15 AM 35.6 °F 30.7 °F 32.0 °F 87% 29.97 in 10.0 mi WSW 5.8 mph - N/A   Clear
2:35 AM 32.0 °F 26.4 °F 32.0 °F 100% 29.97 in 10.0 mi WSW 5.8 mph - N/A   Clear
2:55 AM 32.0 °F 28.7 °F 32.0 °F 100% 29.97 in 10.0 mi SW 3.5 mph - N/A   Clear
3:15 AM 32.0 °F 28.7 °F 30.2 °F 93% 29.98 in 10.0 mi SW 3.5 mph - N/A   Clear
3:35 AM 32.0 °F 28.7 °F 32.0 °F 100% 29.97 in 10.0 mi SSW 3.5 mph - N/A   Clear
3:55 AM 32.0 °F 24.2 °F 30.2 °F 93% 29.94 in 10.0 mi SSE 9.2 mph - N/A   Partly Cloudy
4:15 AM 32.0 °F - 32.0 °F 100% 29.95 in 10.0 mi Calm Calm - N/A   Mostly Cloudy
4:35 AM 32.0 °F - 32.0 °F 100% 29.96 in 10.0 mi Calm Calm - N/A   Mostly Cloudy
4:55 AM 32.0 °F - 32.0 °F 100% 29.95 in 10.0 mi Calm Calm - N/A   Overcast
5:15 AM 32.0 °F - 32.0 °F 100% 29.95 in 10.0 mi Calm Calm - N/A   Overcast
5:35 AM 33.8 °F 29.6 °F 32.0 °F 93% 29.95 in 10.0 mi South 4.6 mph - N/A   Overcast
5:55 AM 35.6 °F 32.8 °F 33.8 °F 93% 29.94 in 10.0 mi South 3.5 mph - N/A   Mostly Cloudy
6:15 AM 35.6 °F 32.8 °F 35.6 °F 100% 29.95 in 10.0 mi NNW 3.5 mph - N/A   Mostly Cloudy
6:35 AM 35.6 °F - 32.0 °F 87% 29.96 in 10.0 mi Calm Calm - N/A   Scattered Clouds
6:55 AM 32.0 °F 27.5 °F 32.0 °F 100% 29.96 in 10.0 mi SSE 4.6 mph - N/A   Partly Cloudy
7:15 AM 32.0 °F 25.6 °F 32.0 °F 100% 29.95 in 10.0 mi South 6.9 mph - N/A   Partly Cloudy
7:35 AM 32.0 °F - 32.0 °F 100% 29.94 in 10.0 mi Calm Calm - N/A   Mostly Cloudy
7:55 AM 33.8 °F 29.6 °F 32.0 °F 93% 29.95 in 10.0 mi North 4.6 mph - N/A   Overcast
8:15 AM 33.8 °F 28.6 °F 32.0 °F 93% 29.97 in 10.0 mi North 5.8 mph - N/A   Overcast
8:35 AM 35.6 °F 32.8 °F 33.8 °F 93% 29.97 in 10.0 mi SSE 3.5 mph - N/A   Overcast
8:55 AM 35.6 °F 32.8 °F 35.6 °F 100% 29.97 in 10.0 mi SSE 3.5 mph - N/A   Overcast
9:15 AM 37.4 °F - 35.6 °F 93% 29.97 in 10.0 mi Calm Calm - N/A   Overcast
9:35 AM 39.2 °F - 37.4 °F 93% 29.97 in 10.0 mi Calm Calm - N/A   Overcast
9:55 AM 39.2 °F 35.9 °F 37.4 °F 93% 29.98 in 10.0 mi West 4.6 mph - N/A   Mostly Cloudy
10:15 AM 41.0 °F 39.0 °F 39.2 °F 93% 29.98 in 10.0 mi WSW 3.5 mph - N/A   Overcast
10:35 AM 44.6 °F 42.2 °F 39.2 °F 81% 30.00 in 10.0 mi West 4.6 mph - N/A   Overcast
10:55 AM 46.4 °F 41.9 °F 41.0 °F 81% 30.00 in 10.0 mi North 9.2 mph 16.1 mph N/A   Overcast
11:15 AM 48.2 °F - 41.0 °F 76% 30.01 in 10.0 mi North 12.7 mph 16.1 mph N/A   Overcast
11:35 AM 46.4 °F 40.1 °F 41.0 °F 81% 30.02 in 10.0 mi North 15.0 mph - N/A   Overcast
11:55 AM 46.4 °F 40.1 °F 41.0 °F 81% 30.03 in 10.0 mi North 15.0 mph 18.4 mph N/A   Overcast
12:15 PM 46.4 °F 40.1 °F 41.0 °F 81% 30.04 in 10.0 mi North 15.0 mph 18.4 mph N/A   Overcast
12:35 PM 46.4 °F 40.7 °F 41.0 °F 81% 30.04 in 10.0 mi NNW 12.7 mph - N/A   Overcast
12:55 PM 46.4 °F 41.5 °F 41.0 °F 81% 30.04 in 10.0 mi North 10.4 mph - N/A   Overcast
1:15 PM 44.6 °F 39.2 °F 41.0 °F 87% 30.04 in 10.0 mi North 10.4 mph - N/A   Overcast
1:35 PM 44.6 °F 37.4 °F 39.2 °F 81% 30.05 in 10.0 mi North 16.1 mph - N/A   Overcast
1:55 PM 44.6 °F 38.1 °F 39.2 °F 81% 30.04 in 10.0 mi North 13.8 mph - N/A   Overcast
2:15 PM 42.8 °F 35.1 °F 39.2 °F 87% 30.05 in 10.0 mi North 16.1 mph - N/A   Overcast
2:35 PM 42.8 °F 35.8 °F 39.2 °F 87% 30.06 in 10.0 mi North 13.8 mph 21.9 mph N/A   Overcast
2:55 PM 42.8 °F 35.4 °F 39.2 °F 87% 30.06 in 10.0 mi North 15.0 mph - N/A   Overcast
3:15 PM 42.8 °F 36.6 °F 37.4 °F 81% 30.07 in 10.0 mi North 11.5 mph 18.4 mph N/A   Overcast
3:35 PM 42.8 °F 36.2 °F 37.4 °F 81% 30.08 in 10.0 mi North 12.7 mph - N/A   Overcast
3:55 PM 41.0 °F 33.5 °F 37.4 °F 87% 30.08 in 10.0 mi North 13.8 mph - N/A   Overcast
4:35 PM 39.2 °F 31.2 °F 35.6 °F 87% 30.11 in 10.0 mi North 13.8 mph - N/A   Overcast
4:55 PM 39.2 °F 31.6 °F 33.8 °F 81% 30.11 in 10.0 mi NNE 12.7 mph - N/A   Overcast
5:15 PM 37.4 °F 30.3 °F 33.8 °F 87% 30.12 in 10.0 mi North 10.4 mph - N/A   Overcast
5:35 PM 37.4 °F 30.3 °F 33.8 °F 87% 30.13 in 10.0 mi North 10.4 mph - N/A   Overcast
5:55 PM 37.4 °F 29.3 °F 33.8 °F 87% 30.14 in 10.0 mi NNW 12.7 mph - N/A   Overcast
6:35 PM 37.4 °F 32.1 °F 33.8 °F 87% 30.13 in 10.0 mi NNE 6.9 mph - N/A   Overcast
6:55 PM 37.4 °F 30.3 °F 32.0 °F 81% 30.13 in 10.0 mi NNE 10.4 mph - N/A   Overcast
7:15 PM 37.4 °F 30.3 °F 32.0 °F 81% 30.15 in 10.0 mi North 10.4 mph - N/A   Overcast
7:35 PM 37.4 °F 28.9 °F 32.0 °F 81% 30.15 in 10.0 mi NNE 13.8 mph - N/A   Overcast
7:55 PM 35.6 °F 27.1 °F 32.0 °F 87% 30.14 in 10.0 mi NNE 12.7 mph - N/A   Overcast
8:15 PM 35.6 °F 28.6 °F 32.0 °F 87% 30.13 in 10.0 mi NNE 9.2 mph - N/A   Overcast
8:35 PM 35.6 °F 29.2 °F 32.0 °F 87% 30.13 in 10.0 mi NNE 8.1 mph - N/A   Overcast
8:55 PM 35.6 °F 29.2 °F 32.0 °F 87% 30.14 in 10.0 mi North 8.1 mph - N/A   Overcast
9:15 PM 35.6 °F 29.9 °F 32.0 °F 87% 30.14 in 10.0 mi North 6.9 mph - N/A   Overcast
9:35 PM 35.6 °F 29.9 °F 30.2 °F 81% 30.14 in 10.0 mi NE 6.9 mph - N/A   Overcast
9:55 PM 35.6 °F - 32.0 °F 87% 30.15 in 10.0 mi Calm Calm - N/A   Overcast
10:15 PM 35.6 °F 32.8 °F 32.0 °F 87% 30.15 in 10.0 mi East 3.5 mph - N/A   Overcast
10:35 PM 35.6 °F 31.7 °F 30.2 °F 81% 30.16 in 10.0 mi ENE 4.6 mph - N/A   Overcast
10:55 PM 33.8 °F 27.0 °F 28.4 °F 81% 30.15 in 10.0 mi ENE 8.1 mph - N/A   Overcast
11:15 PM 33.8 °F 29.6 °F 28.4 °F 81% 30.15 in 10.0 mi ENE 4.6 mph - N/A   Overcast
11:35 PM 32.0 °F 27.5 °F 28.4 °F 87% 30.15 in 10.0 mi NE 4.6 mph - N/A   Overcast
11:55 PM 32.0 °F 27.5 °F 28.4 °F 87% 30.15 in 10.0 mi NE 4.6 mph - N/A   Overcast